Weather History for Ithaca, NY

Change the Weather History Date:

Sunday, August 25, 2013

  Actual Average Record
Temperature  
Mean Temperature 64 °F -  
Max Temperature 79 °F 76 °F 94 °F (1954)
Min Temperature 50 °F 54 °F 35 °F (1940)
Growing Degree Days 14 (Base 50)    
Moisture  
Dew Point 54 °F    
Average Humidity 71    
Maximum Humidity 97    
Minimum Humidity 40    
Precipitation  
Precipitation 0.00 in - - ()
Sea Level Pressure  
Sea Level Pressure 30.32 in    
Wind  
Wind Speed 4 mph (South)    
Max Wind Speed 10 mph    
Max Gust Speed -    
Visibility 10 miles    
Events      
Averages and records for this station are not official NWS values.
T = Trace of Precipitation, MM = Missing Value Source: NWS Daily Summary

Daily Weather History Graph

Daily Weather History Graph

Search for Another Location

Airport:

Trip Planner

Search our weather history database for the weather conditions in past years. The results will help you decide how hot, cold, wet, or windy it might be!

Date:

Astronomy

Aug. 25, 2013 Rise Set
Actual Time 6:23 AM EDT 7:51 PM EDT
Civil Twilight 5:54 AM EDT 8:20 PM EDT
Nautical Twilight 5:18 AM EDT 8:55 PM EDT
Astronomical Twilight 4:40 AM EDT 9:33 PM EDT
Moon 10:13 PM EDT (8/25) 11:30 AM EDT (8/25)
Length of Visible Light 14h 26m
Length of Day
13h 27m
Waning Gibbous, 76% of the Moon is Illuminated
Aug 25
Waning Gibbous
Aug 28
Last Quarter
Sep 5
New
Sep 12
First Quarter
Sep 19
Full

Hourly Weather History & Observations

Time (EDT) Temp. Dew Point Humidity Pressure Visibility Wind Dir Wind Speed Gust Speed Precip Events Conditions
12:56 AM 54.0 °F 52.9 °F 96% 30.37 in 10.0 mi Calm Calm - N/A   Clear
1:56 AM 52.9 °F 52.0 °F 97% 30.37 in 10.0 mi East 4.6 mph - N/A   Clear
2:56 AM 52.9 °F 50.9 °F 93% 30.36 in 10.0 mi East 4.6 mph - N/A   Clear
3:56 AM 52.0 °F 50.9 °F 96% 30.36 in 10.0 mi Calm Calm - N/A   Clear
4:56 AM 52.0 °F 50.0 °F 93% 30.37 in 10.0 mi East 3.5 mph - N/A   Clear
5:56 AM 50.9 °F 50.0 °F 97% 30.38 in 10.0 mi East 5.8 mph - N/A   Clear
6:23 AM 51.8 °F 50.0 °F 94% 30.39 in 10.0 mi East 5.8 mph - N/A   Clear
6:56 AM 52.0 °F 50.0 °F 93% 30.40 in 10.0 mi East 5.8 mph - N/A   Clear
7:56 AM 54.9 °F 52.9 °F 93% 30.40 in 10.0 mi Calm Calm - N/A   Clear
8:56 AM 63.0 °F 54.9 °F 75% 30.40 in 10.0 mi SE 4.6 mph - N/A   Clear
9:56 AM 70.0 °F 56.8 °F 63% 30.38 in 10.0 mi SSW 8.1 mph - N/A   Clear
10:56 AM 73.9 °F 56.8 °F 55% 30.37 in 10.0 mi SSW 9.2 mph - N/A   Clear
11:56 AM 75.9 °F 56.8 °F 51% 30.35 in 10.0 mi SSW 9.2 mph - N/A   Partly Cloudy
12:56 PM 77.9 °F 55.9 °F 47% 30.34 in 10.0 mi WSW 9.2 mph - N/A   Scattered Clouds
1:56 PM 77.9 °F 52.9 °F 42% 30.32 in 10.0 mi West 8.1 mph - N/A   Scattered Clouds
2:56 PM 79.0 °F 52.9 °F 40% 30.31 in 10.0 mi SSW 8.1 mph - N/A   Scattered Clouds
3:56 PM 79.0 °F 54.9 °F 43% 30.28 in 10.0 mi SW 10.4 mph - N/A   Partly Cloudy
4:56 PM 79.0 °F 54.9 °F 43% 30.26 in 10.0 mi SW 9.2 mph - N/A   Partly Cloudy
5:56 PM 77.0 °F 54.9 °F 46% 30.25 in 10.0 mi WSW 8.1 mph - N/A   Scattered Clouds
6:56 PM 72.9 °F 59.0 °F 62% 30.23 in 10.0 mi South 4.6 mph - N/A   Scattered Clouds
7:56 PM 68.0 °F 57.9 °F 70% 30.21 in 10.0 mi South 3.5 mph - N/A   Scattered Clouds
8:56 PM 68.0 °F 55.9 °F 65% 30.21 in 10.0 mi SSW 3.5 mph - N/A   Clear
9:56 PM 66.9 °F 56.8 °F 70% 30.20 in 10.0 mi South 4.6 mph - N/A   Clear
10:56 PM 68.0 °F 55.9 °F 65% 30.19 in 10.0 mi SSW 4.6 mph - N/A   Partly Cloudy
11:56 PM 64.9 °F 56.8 °F 75% 30.24 in 10.0 mi NW 3.5 mph - N/A   Mostly Cloudy